STARLINK-35348

Last updated on Mon Oct 20 2025 00:02:08 GMT+0000 (Coordinated Universal Time)

1 65904U 25224Y 25292.25002315 -.01372513 00000+0 -62002-2 0 9992 2 65904 53.1511 313.3302 0000950 82.4175 119.1652 15.86093363 3101
UTC large
Height (km)
Speed (km/s)
/
Latitude / Longitude
Inclination (degrees)
Orbital Period (minutes)
Azimuth
Elevation
Range (km)
Doppler Factor

Next 0 passes for location: London (51.5072 / 0.1276)

Sorry there are no passes over London.